Location: Moscow
(55.7500°N, 37.5830°E)
Time: 04:35:37
(UTC+03:00)

Kosmos-337 - Pass Details

Date: 09 July 2022
Orbit: 1467 x 1552 km, 74.0° (Epoch: 13 August)

Event Time Altitude Azimuth Distance (km) Brightness Sun altitude
Rises 01:35:07 0° 333° (NNW) 4,737 ? -10.8°
Reaches altitude 10° 01:38:14 10° 327° (NNW) 3,749 ? -10.7°
Maximum altitude 01:46:43 45° 260° (W) 2,022 ? -10.4°
Enters shadow 01:54:37 12° 193° (SSW) 3,556 ? -10.0°
